Retour au catalogue

CZ-11 R/B

ActifLEO
NORAD 43872·ROCKET BODY·🇨🇳 China

Lancé Dec 21, 2018 depuis Jiuquan Satellite Launch Center

Loading…

Prochains Passages (prochaines 24 heures)

TLE

FraisSource: Space-Track

Époque: Sep 14, 2026, 16:42 UTC

1 43872U 18108B   26257.69602796 -.00000157  00000-0 -38930-4 0  9991
2 43872 100.3621 337.1319 0331238  43.1870 319.4765 14.01887995395441

Suivez CZ-11 R/B en temps réel avec AllMySat

Download on the App Store